Regional Weather Roundup
Issued by NWS

Home | Current Version | Previous Version | Text Only | Print | Product List | Glossary On
Versions: 1 2 3 4 5 6 7 8 9 10 11 12 13 14 15 16 17 18 19 20 21 22 23 24 25 26 27 28 29 30 31 32 33 34 35 36 37 38 39 40 41 42 43 44 45 46 47 48 49 50
000
ASUS42 KTBW 071717
RWRFL
FLORIDA REGIONAL WEATHER ROUNDUP
NATIONAL WEATHER SERVICE TAMPA BAY RUSKIN FL
100 PM EDT TUE JUL 07 2015

NOTE: "FAIR" INDICATES FEW OR NO CLOUDS BELOW 12,000 FEET WITH NO
SIGNIFICANT WEATHER AND/OR OBSTRUCTIONS TO VISIBILITY.


FLZ001>010-012>015-112-114-115-071800-
PANHANDLE FLORIDA

CITY           SKY/WX    TMP DP  RH WIND       PRES   REMARKS
PENSACOLA      MOSUNNY   89  75  63 S12       30.16F HX  99
PENSACOLA NAS  MOSUNNY   87  75  67 S10       30.16S HX  96
MILTON NAS     MOSUNNY   90  72  55 W7        30.16  HX  97
CRESTVIEW      SUNNY     89  72  56 VRB3      30.18F HX  96
DUKE FIELD     MOSUNNY   89  71  55 W3        30.16F
VALPARAISO     MOSUNNY   88  75  65 S8        30.16F HX  97
MARY ESTHER    MOSUNNY   87  75  68 S10       30.16F HX  96
TRI COUNTY     FAIR      89  73  59 VRB5      30.17F HX  97
PANAMA CITY    FAIR      90  70  51 NW3       30.16F HX  95
TYNDALL AFB    SUNNY     87  74  66 W9        30.17F HX  96
APALACHICOLA   PTSUNNY   89  73  59 S7        30.17F HX  97

STATION/POSITION SKY/WX   TEMP    WIND        PRES    WAVE   SWELL
                          AIR SEA DIR/SP/G            HT/PER HT/PER
                          (F)     (DEG/KT/KT) (MB)    (FT/S) (FT/S)
30.1N   87.6W              85 86  220/  4/  6 1021.1R   2/ 5   2/ 5
29.2N   88.2W              84 88  150/  8/  8 1021.5S   2/ 7   2/ 7
28.8N   86.0W              83 86   50/  6/  8 1022.0F   1/ 6   2/ 6
PANAMA CITY BEAC           83 82  230/  5/  6 1021.9R
CAPE SAN BLAS    NOT AVBL
TOWER C                    82      20/  4/  4 1021.8F
28.5N   84.5W              84 86   30/  6/  8 1022.2R   1/ 9   2/ 9

$$
FLZ011-016>038-118-127-128-134-139-239-071800-
NORTH FLORIDA

CITY           SKY/WX    TMP DP  RH WIND       PRES   REMARKS
MARIANNA       MOSUNNY   88  71  57 CALM      30.16F
TALLAHASSEE    MOSUNNY   92  71  50 NE6       30.17F HX  98
PERRY          MOSUNNY   90  70  51 CALM      30.17F HX  95
CROSS CITY       N/A     91  72  53 VRB6      30.16F HX  98
LAKE CITY      FAIR      84  72  65 W8        30.18S
GAINESVILLE    PTSUNNY   86  70  58 CALM      30.17F
MAYPORT NAS    PTSUNNY   86  72  62 E8        30.17F
JACKSONVILLE   MOSUNNY   88  70  55 CALM      30.16F
JAX NAS        MOSUNNY   91  67  44 SE7       30.17F
JAX CRAIG      PTSUNNY   85  73  67 NE8       30.17F
JAX CECIL      PTSUNNY   88  72  58 VRB6      30.18S
FERNANDINA BEA FAIR      90  70  51 SE8       30.16F HX  95
ST AUGUSTINE   MOSUNNY   84  75  74 E10       30.18F

STATION/POSITION SKY/WX   TEMP    WIND        PRES    WAVE   SWELL
                          AIR SEA DIR/SP/G            HT/PER HT/PER
                          (F)     (DEG/KT/KT) (MB)    (FT/S) (FT/S)
SHELL POINT                84     210/  5/  6   N/A
KEATON BEACH               84     270/  6/  8 1021.7F
CEDAR KEY                  83     240/  3/  5 1022.1F
FERNANDINA                 85 81  130/  5/  7 1021.4R
30.7N   81.3W                 79                N/A     2/ 8
MAYPORT                    81 77   70/  8/  9 1022.4R
31.4N   80.9W              77 79  210/  8/ 10 1021.7F   2/ 9   2/ 9
ST AUGUSTINE               76 74  100/ 10/ 10 1022.5F

$$
FLZ040-043>046-052-053-057-058-063-144-071800-
INTERIOR CENTRAL FLORIDA

CITY           SKY/WX    TMP DP  RH WIND       PRES   REMARKS
OCALA          PTSUNNY   88  70  55 S9        30.17F
THE VILLAGES     N/A    N/A N/A N/A VRB3      30.07F
LEESBURG       SUNNY     88  70  55 VRB5      30.18F
SANFORD        PTSUNNY   82  74  76 N13       30.17F
ORLANDO EXEC   LGT RAIN  84  77  79 SE6       30.17F
ORLANDO INTL   PTSUNNY   88  74  63 S6        30.16F THUNDER HX  96
KISSIMMEE      PTSUNNY   88  75  66 SE9       30.17F HX  97
WINTER HAVEN   MOSUNNY   86  71  60 E6        30.18F
LAKELAND       PTSUNNY   88  73  62 CALM      30.17F HX  96
OKEECHOBEE     CLOUDY    82  70  65 E9G17     30.18S THUNDER

$$
FLZ041-047-054-059-064-141-147-071800-
EAST CENTRAL FLORIDA

CITY           SKY/WX    TMP DP  RH WIND       PRES   REMARKS
ORMOND BEACH   MOSUNNY   86  73  66 E9        30.17F
DAYTONA BEACH  MOSUNNY   87  73  62 E9        30.18F
DELAND           N/A     86  72  62 CALM      30.18F
NEW SMYRNA BEA MOSUNNY   86  72  62 SW9G16    30.19F
JFK SPACE CTR  MOSUNNY   88  68  52 E8        30.17F HAZE
TITUSVILLE     MOSUNNY   88  66  48 SE7       30.18F
CAPE CANAVERAL MOSUNNY   87  66  48 E7        30.17F
PATRICK AFB    MOSUNNY   85  72  64 E8        30.18F
MELBOURNE      MOSUNNY   86  73  65 E9        30.18F
VERO BEACH     PTSUNNY   89  73  59 E9        30.18F HX  97
FT PIERCE      PTSUNNY   83  72  69 W6        30.18F
STUART         TSTM      81  72  74 S14       30.12F

STATION/POSITION SKY/WX   TEMP    WIND        PRES    WAVE   SWELL
                          AIR SEA DIR/SP/G            HT/PER HT/PER
                          (F)     (DEG/KT/KT) (MB)    (FT/S) (FT/S)
28.5N   80.2W              82 85  350/  4/  4 1022.8F
28.9N   78.5W              82 83  160/  4/  4 1022.9F
TRIDENT PIER               87 76   70/  6/  8 1022.8F
28.4N   80.5W                 80                N/A     2/ 8
27.5N   80.2W                 82                N/A     1/ 8

$$
FLZ050-056-061-142-242-148-248-149-249-151-251-155-255-
160-260-071800-
WEST CENTRAL FLORIDA

CITY           SKY/WX    TMP DP  RH WIND       PRES   REMARKS
CRYSTAL RIVER  CLOUDY    86  72  62 W7        30.16F
INVERNESS      PTSUNNY  N/A N/A N/A SE5       30.16F
BROOKSVILLE    MOSUNNY   91  69  48 S7        30.17F HX  96
ZEPHYRHILLS    FAIR      90  68  48 CALM      30.17F
CLEARWATER     SUNNY     89  67  47 NE5       30.16F
TAMPA INTL     MOSUNNY   89  70  53 SW9       30.16F
TAMPA EXEC     SUNNY    N/A N/A N/A SW3       30.17F
PLANT CITY     PTSUNNY   90  75  62 NE3       30.18F HX 100
MACDILL AFB    MOSUNNY   90  77  64 NW5       30.16F HX 102
PETER O KNIGHT SUNNY     91  70  49 SW5       30.16F HX  97
ST PETERSBURG  SUNNY     88  72  58 E3        30.15F
SARASOTA       MOSUNNY   88  74  63 NW9       30.15S THUNDER HX  96
VENICE         FAIR      88  73  62 SW9       30.16F HX  96

STATION/POSITION SKY/WX   TEMP    WIND        PRES    WAVE   SWELL
                          AIR SEA DIR/SP/G            HT/PER HT/PER
                          (F)     (DEG/KT/KT) (MB)    (FT/S) (FT/S)
CEDAR KEY                  83     240/  3/  5 1022.1F
28.5N   84.5W              84 86   30/  6/  8 1022.2R   1/ 9   2/ 9
27.3N   84.2W                 87                N/A     1/ 4
CLEARWATER BEACH NOT AVBL
MIDDLE TAMPA BAY                   30/  6/  8 1022.2S
VENICE                     85 90  220/  7/  8 1020.6F

$$
FLZ066-069-070-075>078-162-262-165-265-071800-
SOUTHWEST FLORIDA AND KEYS

CITY           SKY/WX    TMP DP  RH WIND       PRES   REMARKS
PUNTA GORDA    MOSUNNY   90  73  57 E6        30.17F HX  98
FT MYERS       PTSUNNY   90  72  55 VRB3      30.14F HX  97
SOUTHWEST INTL MOSUNNY   90  72  55 VRB5      30.15F HX  97
NAPLES         PTSUNNY   90  73  58 NW6       30.14F HX  98
MARCO ISLAND   MOSUNNY   91  72  52 NE3       30.15F HX  98
MARATHON       SUNNY     92  76  59 SE6       30.16F HX 104
KEY WEST NAS   MOSUNNY   89  74  60 SE12      30.15F HX  98
KEY WEST INTL  SUNNY     90  75  61 SE9       30.16F HX 100

STATION/POSITION SKY/WX   TEMP    WIND        PRES    WAVE   SWELL
                          AIR SEA DIR/SP/G            HT/PER HT/PER
                          (F)     (DEG/KT/KT) (MB)    (FT/S) (FT/S)
VENICE                     85 90  220/  7/  8 1020.6F
NAPLES                        87              1022.3F
26.0N   85.6W              85 86   80/ 10/ 14 1020.7F   3/10   2/10
DRY TORTUGAS               85     130/ 12/ 14 1021.1F
NW FL BAY                  86     130/  6/  7 1021.6
SAND KEY                   85     120/  6/ 13 1021.1F
SOMBRERO KEY               86     110/  7/  8 1021.9F
LONG KEY                   86 87  160/  7/  9 1022.0F
MOLASSES REEF              84 86  110/  7/  8 1021.5S

$$
FLZ067-068-071>074-168-172>174-071800-
SOUTHEAST FLORIDA

CITY           SKY/WX    TMP DP  RH WIND       PRES   REMARKS
W PALM BEACH   CLOUDY    83  74  74 E13       30.19S THUNDER
FT LAUDER-EXEC CLOUDY    87  72  60 SE5       30.18S
FT LAUDERDALE  PTSUNNY   84  76  76 E7        30.18R
POMPANO BEACH  CLOUDY    86  72  62 SE7       30.18S
PEMBROKE PINES PTSUNNY   87  74  64 NE8       30.19R HX  95
OPA LOCKA      PTSUNNY   89  70  53 SE9       30.17S
MIAMI          PTSUNNY   89  68  49 S8        30.17S
WEST KENDALL   MOSUNNY   91  72  53 E15       30.16S HX  98
HOMESTEAD      MOSUNNY   89  73  58 E12       30.16F HX  97

STATION/POSITION SKY/WX   TEMP    WIND        PRES    WAVE   SWELL
                          AIR SEA DIR/SP/G            HT/PER HT/PER
                          (F)     (DEG/KT/KT) (MB)    (FT/S) (FT/S)
PORT EVERGLADES            81      60/  9/ 11 1022.0F
VIRGINIA KEY               84 88  150/  8/ 10 1021.4F
LAKE WORTH                 82 85  130/  6/  9 1021.9S
SETTLEMENT POINT           85     170/  4/  5 1022.5F

$$



USA.gov is the U.S. government's official web portal to all federal, state and local government web resources and services.